Other Public Products
Issued by NWS Grand Forks, ND

Home | Current Version | Previous Version | Graphics & Text | Print | Product List | Glossary On
Versions: 1 2 3 4 5 6 7 8 9 10 11 12 13 14 15 16 17 18 19 20 21 22 23 24 25 26 27 28 29 30 31 32 33 34 35 36 37 38 39 40 41 42 43 44 45 46 47 48 49 50
000
FPUS83 KFGF 051531
OPUFGF
PRAIRIE TO PINES WEATHER ROUNDUP
NATIONAL WEATHER SERVICE EASTERN NORTH DAKOTA/GRAND FORKS ND
1000 AM CDT SAT SEP 05 2015

 **SATELLITE DATA USED TO AUGMENT SKY COVER AT AUTOMATED STATIONS**
 *****  WEATHER ACROSS EASTERN NORTH DAKOTA  *****

CITY           SKY/WX    TMP DP  RH WIND       PRES   REMARKS
GRAND FORKS    CLOUDY    65  63  93 N12       29.87S FOG
GRAND FORKS AF CLOUDY    64  64 100 N10       29.90S FOG
GRAND CITY NWS   N/A     64 N/A N/A N6          N/A
BUXTON         NOT AVBL
DEVILS LAKE    CLOUDY    61  55  82 NE8       29.92R
FARGO          CLOUDY    73  69  87 CALM      29.85R
WAHPETON ARPT  SUNNY     77  68  73 SE8       29.84S
$$

 *****  WEATHER ACROSS CENTRAL AND WESTERN NORTH DAKOTA  *****

CITY           SKY/WX    TMP DP  RH WIND       PRES   REMARKS
JAMESTOWN      CLOUDY    67  66  97 NE8       29.87S FOG
BISMARCK       CLOUDY    68  67  96 E15       29.85S FOG
MINOT          LGT RAIN  60  58  92 E15       29.86F FOG
MINOT AFB      LGT RAIN  61  61 100 E20       29.84F
GARRISON         N/A     62  59  90 E24G31    29.85F
WILLISTON      CLOUDY    57  55  93 N20G29    29.88R
DICKINSON      CLOUDY    64  62  93 E17       29.82S FOG
HETTINGER      HVY RAIN  65  63  93 NE12      29.86F FOG
$$

 *****  OTHER OBSERVATIONS NORTHEAST NORTH DAKOTA  *****

CITY           SKY/WX    TMP DP  RH WIND       PRES   REMARKS
WALHALLA       FAIR      63  63 100 MISG      29.95S FOG
LANGDON        CLOUDY    63  63 100 N10       29.95F FOG
CAVALIER       CLOUDY    63  63 100 NW12      29.93F FOG
GRAFTON        CLOUDY    64  64 100 NW13      29.92R
CANDO          CLOUDY    59  59 100 NE13      29.93F
FORT TOTTEN      N/A     62  62 100 NE6       29.95S
ROLLA          CLOUDY    59  59 100 E15       29.94F
RUGBY          CLOUDY    63  59  88 E20       29.91F
 ***** THE ABOVE OBSERVATIONS ARE NON NWS ARE NOT QUALITY
        CONTROLLED AND MAY MIS-REPORT RAIN FOR SNOW...
$$

 *****  OTHER OBSERVATIONS SOUTHEAST NORTH DAKOTA *****

CITY           SKY/WX    TMP DP  RH WIND       PRES   REMARKS
COOPERSTOWN    NOT AVBL
VALLEY CITY    FOG       66  66 100 NE13      29.87S VSB 1/4
OAKES            N/A     70  66  88 NE8       29.84S FOG
GWINNER        CLOUDY    72  72 100 NE6       29.84S
SHEYENNE NWR     N/A     71  71 100 NE6       29.95S
BUFFALO        NOT AVBL
WYNDMERE         N/A     79  72  78 SE6         N/A
 ***** THE ABOVE OBSERVATIONS ARE NON NWS ARE NOT QUALITY
       CONTROLLED AND MAY MIS-REPORT RAIN FOR SNOW...
$$

  *****  WEATHER ACROSS NORTHERN MINNESOTA  *****

CITY           SKY/WX    TMP DP  RH WIND       PRES   REMARKS
FLAG ISLAND    CLOUDY    66  64  94 N6        29.91S FOG
WARROAD        FOG       70  64  83 NE5       29.91S VSB 1/4
ROSEAU         CLOUDY    70  64  83 E7        29.91R
HALLOCK        CLOUDY    66  64  94 CALM      29.91R
THF RVR FALLS  CLOUDY    73  72  94 E10       29.88S
HALSTAD        NOT AVBL
FOSSTON        CLOUDY    73  72  94 E5        29.88S
BAUDETTE       CLOUDY    72  68  87 SE8       29.91S
WASKISH        CLOUDY    73  72  94 SE5       29.91R
CROOKSTON      CLOUDY    73  70  88 E6        29.88R
$$
  *****  WEATHER ACROSS CENTRAL AND WEST MINNESOTA  *****

CITY           SKY/WX    TMP DP  RH WIND       PRES   REMARKS
BEMIDJI        PTSUNNY   74  71  87 SE7       29.90S
PARK RAPIDS    PTSUNNY   76  70  82 SE10      29.89F
WADENA         MOSUNNY   79  70  73 S13G20    29.88S
DETROIT LAKES  MOSUNNY   77  70  78 SE10      29.89R
MOORHEAD       MOSUNNY   79  72  78 SE6       29.84F
FERGUS FALLS   SUNNY     79  70  73 SE12      29.84S
ELBOW LAKE     FAIR      77  71  81 S13       29.85S
MORRIS MN      MOSUNNY   81  72  74 S14       29.84S
STAPLES        MOSUNNY   79  70  73 S14       29.89S
WHEATON        MOSUNNY   75  70  83 SE8       29.84S
$$
  *****  WEATHER ELSEWHERE ACROSS MINNESOTA  *****

CITY           SKY/WX    TMP DP  RH WIND       PRES   REMARKS
DULUTH         PTSUNNY   72  67  84 S12       29.98F
INTRNTL FALLS  CLOUDY    70  68  93 SE6       29.93F
ELY            MOSUNNY   72  66  83 E8        29.97F
CLOQUET        CLOUDY    73  66  78 SE6       29.97F
BRAINERD       SUNNY     78  70  76 S8        29.92S
HIBBING        PTSUNNY   75  70  84 SE7       29.96S
ALEXANDRIA     PTSUNNY   79  70  74 S13G21    29.88S
SAINT CLOUD    SUNNY     79  69  71 S8        29.89F
MINNEAPOLIS    CLOUDY    77  70  79 S16G24    29.91F
$$

  *****  WEATHER ACROSS SOUTH DAKOTA  *****

CITY           SKY/WX    TMP DP  RH WIND       PRES   REMARKS
SIOUX FALLS    CLOUDY    75  70  84 S10       29.86S
BROOKINGS      PTSUNNY   75  70  83 S13       29.87S
WATERTOWN      PTSUNNY   74  68  81 SE12      29.84S
HURON          CLOUDY    75  68  78 S6        29.79R
SISSETON         N/A     74  70  87 S5        29.82F
ABERDEEN       CLOUDY    73  70  90 E6        29.81F
MITCHELL       CLOUDY    78  69  73 S9        29.80S
PIERRE         LGT RAIN  70  66  87 N6        29.77F
MOBRIDGE       CLOUDY    73  73 100 SE10      29.79F
RAPID CITY     CLOUDY    71  62  73 N6        29.84R
$$

  *****  SOME WEATHER IN NEARBY STATES *****

CITY           SKY/WX    TMP DP  RH WIND       PRES   REMARKS
GLASGOW MT     CLOUDY    54  49  83 E12       29.89F
GREAT FALLS MT LGT RAIN  47  46  97 NW9       29.90F FOG
CHEYENNE WY    PTSUNNY   71  46  40 W10       30.04R
SCOTTSBLUFF NE CLOUDY    72  56  57 W8        29.90S
OMAHA NE       MOSUNNY   82  70  66 S15G22    29.95S
DES MOINES IA  PTSUNNY   83  70  64 S12       30.01S
DAVENPORT IA   PTSUNNY   78  71  79 S5        30.08R
CHICAGO IL     PTSUNNY   75  67  76 SW6       30.11R
EAU CLAIRE WI  PTSUNNY   78  69  73 S10       29.99F
LA CROSSE WI   MOSUNNY   79  70  74 S8        30.02R
$$

  *****  SOME NATIONAL WEATHER *****

CITY           SKY/WX    TMP DP  RH WIND       PRES   REMARKS
LA GUARDIA NY  MOSUNNY   72  57  59 NE13      30.29R
RALEIGH NC     PTSUNNY   77  69  76 NE8       30.18R
ATLANTA GA     MOSUNNY   79  66  64 E14       30.16R
NEW ORLEANS LA PTSUNNY   84  76  76 NW7       30.05R HX  93
OKLAHOMA CITY  PTSUNNY   83  71  67 S8        30.03R
ALBUQUERQUE NM PTSUNNY   67  58  72 N6        30.19R
SALT LAKE CITY MOSUNNY   75  39  27 S23G33    29.89R
LOS ANGELES CA PTSUNNY   67  59  75 NE6       29.91R
BOISE ID       MOSUNNY   50  39  66 CALM      30.02R
SEATTLE WA     PTSUNNY   50  45  83 S5        30.08R
$$

*** WEATHER ACROSS MANITOBA...SASKATCHEWAN AND ONTARIO ***
                ***ONTARIO***

CITY           SKY/WX    TMP DP  RH WIND       PRES   REMARKS
GERALDTON      PTSUNNY   70  64  83 S13G18    30.03F
THUNDER BAY    PTSUNNY   70  64  83 NE3       30.01S
SIOUX LOOKOUT  CLOUDY    72  68  88 W6        29.94R
TORONTO        SUNNY     77  66  69 S5        30.18S
BIG TROUT LK   RAIN      63  63 100 NE6       29.91F
PICKLE LAKE    CLOUDY    66  64  94 S13       29.89S
DRYDEN         PTSUNNY   72  66  83 SW9       29.94R
KENORA         CLOUDY    66  64  94 VRB3      29.94F
$$
                *** MANITOBA***

CITY           SKY/WX    TMP DP  RH WIND       PRES   REMARKS
BRANDON        LGT RAIN  59  55  88 E12G18    29.93R
DAUPHIN        LGT RAIN  55  55 100 NE10      29.97F
ISLAND LAKE    LGT RAIN  55  55 100 NE7       30.00R
PILOT MOUND      N/A     57  57 100 NE10G17     N/A
THE PAS        CLOUDY    59  48  67 N8        30.09S
THOMPSON       PTSUNNY   52  50  93 N7        30.10R
WINNIPEG       CLOUDY    64  64 100 N9        29.96R
LYNN LAKE      PTSUNNY   50  45  81 N8        30.17R
CHURCHILL      CLOUDY    48  45  87 NE6       30.14S FOG
GILLAM         CLOUDY    52  48  87 N12       30.10R
$$
                ***SASKATCHEWAN***

CITY           SKY/WX    TMP DP  RH WIND       PRES   REMARKS
ESTEVAN        TSTM      55  54  94 N13       29.93R
KINDERSLEY     LGT RAIN  46  45  93 NE14      30.06
LLOYDMINSTER   CLOUDY    48  43  81 NE9       30.15F
PRINCE ALBERT  CLOUDY    52  45  76 NE10      30.11F
REGINA         CLOUDY    52  50  93 E23G30    29.95S


USA.gov is the U.S. government's official web portal to all federal, state and local government web resources and services.